Location: Charleville
(26.4021°S, 146.2454°E)
Time: 09:32:43
(UTC+10:00)

Hubble Space Telescope - Visible Passes

Search period start: 30 November 2021 00:00
Search period end: 10 December 2021 00:00
Orbit: 534 x 538 km, 28.5° (Epoch: 29 November)

Date Brightness Start Highest point End Pass type
(mag) Time Alt. Az. Time Alt. Az. Time Alt. Az.
30 Nov 1.8 19:54:27 10° W 19:58:15 34° NNW 20:00:26 20° NNE visible
01 Dec 2.2 19:43:30 10° W 19:47:04 27° NNW 19:49:52 14° NNE visible
02 Dec 2.5 19:32:38 10° WNW 19:35:51 22° NNW 19:39:04 10° NNE visible
03 Dec 2.9 19:21:54 10° WNW 19:24:38 17° NNW 19:27:21 10° NNE visible
